Regional Weather Roundup
Issued by NWS

Home | Current Version | Previous Version | Graphics & Text | Print | Product List | Glossary On
Versions: 1 2 3 4 5 6 7 8 9 10 11 12 13 14 15 16 17 18 19 20 21 22 23 24 25 26 27 28 29 30 31 32 33 34 35 36 37 38 39 40 41 42 43 44 45 46 47 48 49 50
000
ASUS45 KCYS 220810
RWRWY

WYOMING REGIONAL WEATHER ROUNDUP
NATIONAL WEATHER SERVICE CHEYENNE WY
200 AM MDT TUE JUL 22 2014

NOTE:  "FAIR" INDICATES FEW OR NO CLOUDS BELOW 12,000 FEET
WITH NO SIGNIFICANT WEATHER AND/OR OBSTRUCTIONS TO VISIBILITY.

WYZ001-220900-
YELLOWSTONE NATIONAL PARK

CITY           SKY/WX    TMP DP  RH WIND       PRES   REMARKS
LK YELLOWSTONE   N/A     45  43  93 NW3       30.41F
W YELLOWSTONE  NOT AVBL

$$
WYZ002>013-054>058-071-098>099-220900-
NORTHERN WYOMING

CITY           SKY/WX    TMP DP  RH WIND       PRES   REMARKS
JACKSON        MOCLDY    48  46  93 CALM      30.33R
CODY           MOCLDY    70  39  32 W3        30.20R
GREYBULL       MOCLDY    66  49  54 SW3       30.15R
WORLAND        PTCLDY    64  47  53 S12       30.17R
SHERIDAN       PTCLDY    61  55  81 CALM      30.14R
BUFFALO        PTCLDY    66  48  52 S7        30.22S
GILLETTE       PTCLDY    61  56  83 S7        30.17R
HULETT         FAIR      59  54  82 MISG      30.16
NEWCASTLE      FAIR      70  52  52 NW3       30.17

$$
WYZ014>020-022>026-101>103-220900-
CENTRAL WYOMING

CITY           SKY/WX    TMP DP  RH WIND       PRES   REMARKS
BIG PINEY      PTCLDY    50  39  66 CALM      30.37R
PINEDALE       MOSUNNY   50  41  71 W3        30.37F
DUBOIS         FAIR      52  39  62 N3        30.37S
LANDER         PTCLDY    65  40  39 SE6       30.26R
RIVERTON       PTCLDY    62  39  42 NE6       30.27R
CASPER         PTCLDY    62  51  67 NE3       30.29R
DOUGLAS        PTCLDY    65  51  60 W5        30.26R

$$
WYZ021-027>030-104>119-220900-
SOUTHERN WYOMING

CITY           SKY/WX    TMP DP  RH WIND       PRES   REMARKS
EVANSTON       PTCLDY    59  42  53 N8        30.37R
KEMMERER       SUNNY     54  37  54 N6        30.38R
FORT BRIDGER   FAIR      62  32  32 CALM      30.39R
ROCK SPRINGS   NOT AVBL
DIXON          FAIR      55  36  47 E3        30.33R
RAWLINS        CLEAR     57  32  38 NW10      30.34R
SARATOGA       FAIR      54  32  43 S5        30.36R
LARAMIE        MOCLDY    59  38  45 CALM      30.35S
CHEYENNE       CLEAR     62  40  44 W6        30.27S
TORRINGTON     CLEAR     71  50  47 CALM      30.10R
PINE BLUFFS    FAIR      63  46  55 SW3       30.18S

$$


USA.gov is the U.S. government's official web portal to all federal, state and local government web resources and services.